User: anonymous   Login
Location: Austin
(30.3000°N, 97.7500°W)
Time: 06:11:18
(UTC-05:00)
Language:

ISS - Orbit

View from above orbital plane
View from above orbital plane
View from above satellite
View from above satellite

Ground track
Ground track

The orbit data is extracted from the following two-line orbital elements,

1 25544U 98067A   24167.87184072 -.00110344  00000-0 -19901-2 0  9994
2 25544  51.6413 321.7831 0010404 330.0176 183.8974 15.49396805458340
Epoch (UTC): 15 June 2024 20:55:27
Eccentricity: 0.0010404
inclination: 51.6413°
perigee height: 411 km
apogee height: 425 km
right ascension of ascending node: 321.7831°
argument of perigee: 330.0176°
revolutions per day: 15.49396805
mean anomaly at epoch: 183.8974°
orbit number at epoch: 45834

The dashed part of the orbit path shows where the satellite is in the earth's shadow,  

DLR